When you browse on this site, cookies collect data to enhance your experience and personalize the content and advertising you see.
Visit our Privacy Policy to learn more. By continuing to use the site, you agree to this use of cookies and data.

Hourly Weather Cam Ranh

Today, 12 July, Sunday

Time Temperature Precipitation Wind Pressure Humidity
00:00 +28°C° 0 mm 3 mps 751 mmHg 86%
01:00 +28°C° 0 mm 2 mps 751 mmHg 85%
02:00 +28°C° 0 mm 2 mps 751 mmHg 83%
03:00 +28°C° 0 mm 2 mps 750 mmHg 82%
04:00 +28°C° 0 mm 2 mps 750 mmHg 81%
05:00 +28°C° 0 mm 3 mps 750 mmHg 79%
06:00 +28°C° 0 mm 3 mps 751 mmHg 78%
07:00 +29°C° 0 mm 3 mps 751 mmHg 76%
08:00 +30°C° 0 mm 3 mps 751 mmHg 70%
09:00 +33°C° 0 mm 3 mps 751 mmHg 64%
10:00 +34°C° 0 mm 3 mps 751 mmHg 59%
11:00 +35°C° 0 mm 4 mps 751 mmHg 58%
12:00 +35°C° 0 mm 5 mps 750 mmHg 58%
13:00 +35°C° 0 mm 6 mps 750 mmHg 58%
14:00 +35°C° 0 mm 6 mps 749 mmHg 60%
15:00 +35°C° 0 mm 6 mps 749 mmHg 62%
16:00 +34°C° 0 mm 6 mps 749 mmHg 63%
17:00 +33°C° 0 mm 6 mps 749 mmHg 69%
18:00 +32°C° 0 mm 5 mps 749 mmHg 76%
19:00 +30°C° 0 mm 5 mps 750 mmHg 82%
20:00 +29°C° 0.1 mm 5 mps 750 mmHg 84%
21:00 +29°C° 0.1 mm 4 mps 751 mmHg 86%
22:00 +29°C° 0.1 mm 4 mps 751 mmHg 88%
23:00 +28°C° 0.1 mm 4 mps 751 mmHg 88%

Tomorrow, 13 July, Monday

Time Temperature Precipitation Wind Pressure Humidity
00:00 +28°C° 0.1 mm 3 mps 751 mmHg 87%
01:00 +28°C° 0.1 mm 3 mps 751 mmHg 87%
02:00 +28°C° 0.1 mm 3 mps 751 mmHg 86%
03:00 +28°C° 0.1 mm 4 mps 751 mmHg 84%
04:00 +28°C° 0.1 mm 4 mps 751 mmHg 83%
05:00 +28°C° 0 mm 4 mps 751 mmHg 82%
06:00 +28°C° 0 mm 3 mps 751 mmHg 81%
07:00 +28°C° 0 mm 3 mps 751 mmHg 80%
08:00 +30°C° 0 mm 2 mps 751 mmHg 71%
09:00 +32°C° 0 mm 2 mps 751 mmHg 62%
10:00 +34°C° 0 mm 1 mps 751 mmHg 53%
11:00 +35°C° 0 mm 3 mps 751 mmHg 55%
12:00 +35°C° 0 mm 4 mps 751 mmHg 56%
13:00 +35°C° 0 mm 5 mps 750 mmHg 58%
14:00 +34°C° 0.1 mm 5 mps 750 mmHg 61%
15:00 +34°C° 0.1 mm 5 mps 749 mmHg 63%
16:00 +33°C° 0.1 mm 5 mps 749 mmHg 66%
17:00 +32°C° 0 mm 5 mps 749 mmHg 71%
18:00 +30°C° 0 mm 5 mps 750 mmHg 76%
19:00 +29°C° 0 mm 5 mps 751 mmHg 81%
20:00 +29°C° 0 mm 4 mps 751 mmHg 82%
21:00 +28°C° 0 mm 4 mps 751 mmHg 82%
22:00 +28°C° 0 mm 4 mps 752 mmHg 83%
23:00 +28°C° 0 mm 4 mps 752 mmHg 84%

Day after tomorrow, 14 July, Tuesday

Time Temperature Precipitation Wind Pressure Humidity
00:00 +28°C° 0 mm 4 mps 751 mmHg 84%
01:00 +27°C° 0 mm 3 mps 751 mmHg 85%
02:00 +27°C° 0 mm 3 mps 751 mmHg 84%
03:00 +27°C° 0 mm 2 mps 750 mmHg 83%
04:00 +27°C° 0 mm 2 mps 750 mmHg 82%
05:00 +28°C° 0 mm 2 mps 750 mmHg 79%
06:00 +28°C° 0 mm 1 mps 751 mmHg 76%
07:00 +29°C° 0 mm 1 mps 751 mmHg 72%
08:00 +30°C° 0 mm 2 mps 751 mmHg 69%
09:00 +31°C° 0 mm 2 mps 751 mmHg 65%
10:00 +33°C° 0 mm 3 mps 752 mmHg 61%
11:00 +34°C° 0 mm 3 mps 751 mmHg 61%
12:00 +34°C° 0 mm 4 mps 750 mmHg 61%
13:00 +35°C° 0 mm 5 mps 750 mmHg 61%
14:00 +34°C° 0.2 mm 5 mps 750 mmHg 64%
15:00 +34°C° 0.2 mm 5 mps 749 mmHg 67%
16:00 +33°C° 0.2 mm 5 mps 749 mmHg 70%
17:00 +32°C° 0.2 mm 5 mps 749 mmHg 75%
18:00 +30°C° 0.2 mm 5 mps 750 mmHg 79%
19:00 +29°C° 0.2 mm 5 mps 750 mmHg 84%
20:00 +29°C° 0 mm 5 mps 751 mmHg 85%
21:00 +29°C° 0 mm 5 mps 751 mmHg 86%
22:00 +28°C° 0 mm 5 mps 752 mmHg 87%
23:00 +28°C° 0 mm 5 mps 751 mmHg 87%

15 July, Wednesday

Time Temperature Precipitation Wind Pressure Humidity
00:00 +28°C° 0 mm 5 mps 751 mmHg 87%
01:00 +28°C° 0 mm 5 mps 751 mmHg 87%
02:00 +27°C° 0 mm 4 mps 750 mmHg 86%
03:00 +27°C° 0 mm 4 mps 750 mmHg 85%
04:00 +27°C° 0 mm 4 mps 750 mmHg 85%
05:00 +28°C° 0.1 mm 3 mps 750 mmHg 83%
06:00 +28°C° 0.1 mm 3 mps 751 mmHg 81%
07:00 +29°C° 0.1 mm 2 mps 751 mmHg 79%
08:00 +30°C° 0 mm 2 mps 751 mmHg 73%
09:00 +33°C° 0 mm 3 mps 751 mmHg 66%
10:00 +34°C° 0 mm 3 mps 751 mmHg 60%
11:00 +34°C° 0 mm 4 mps 750 mmHg 59%
12:00 +35°C° 0 mm 4 mps 750 mmHg 58%
13:00 +35°C° 0 mm 5 mps 749 mmHg 58%
14:00 +35°C° 0.1 mm 6 mps 749 mmHg 61%
15:00 +34°C° 0.1 mm 6 mps 748 mmHg 65%
16:00 +34°C° 0.1 mm 6 mps 748 mmHg 69%
17:00 +32°C° 0.1 mm 6 mps 748 mmHg 74%
18:00 +30°C° 0.1 mm 5 mps 749 mmHg 79%
19:00 +29°C° 0.1 mm 5 mps 749 mmHg 84%
20:00 +29°C° 0 mm 5 mps 750 mmHg 85%
21:00 +29°C° 0 mm 5 mps 750 mmHg 86%
22:00 +28°C° 0 mm 4 mps 751 mmHg 88%
23:00 +28°C° 0 mm 4 mps 750 mmHg 88%

16 July, Thursday

Time Temperature Precipitation Wind Pressure Humidity
00:00 +28°C° 0 mm 4 mps 750 mmHg 89%
01:00 +28°C° 0 mm 4 mps 750 mmHg 89%
02:00 +27°C° 0 mm 4 mps 750 mmHg 89%
03:00 +27°C° 0 mm 3 mps 750 mmHg 89%
04:00 +27°C° 0 mm 3 mps 750 mmHg 89%
05:00 +28°C° 0 mm 3 mps 750 mmHg 87%
06:00 +28°C° 0 mm 3 mps 750 mmHg 84%
07:00 +29°C° 0 mm 3 mps 751 mmHg 81%
08:00 +30°C° 0 mm 3 mps 751 mmHg 76%
09:00 +33°C° 0 mm 4 mps 751 mmHg 71%
10:00 +34°C° 0 mm 4 mps 751 mmHg 65%
11:00 +34°C° 0.3 mm 5 mps 750 mmHg 66%
12:00 +34°C° 0.3 mm 6 mps 750 mmHg 67%
13:00 +34°C° 0.3 mm 6 mps 749 mmHg 68%
14:00 +34°C° 0.1 mm 6 mps 749 mmHg 69%
15:00 +33°C° 0.1 mm 6 mps 749 mmHg 69%
16:00 +33°C° 0.1 mm 6 mps 748 mmHg 70%
17:00 +32°C° 0 mm 6 mps 749 mmHg 75%
18:00 +30°C° 0 mm 5 mps 749 mmHg 79%
19:00 +29°C° 0 mm 5 mps 750 mmHg 84%
20:00 +29°C° 0 mm 5 mps 750 mmHg 85%
21:00 +29°C° 0 mm 4 mps 751 mmHg 87%
22:00 +28°C° 0 mm 4 mps 751 mmHg 89%
23:00 +28°C° 0 mm 4 mps 751 mmHg 89%

17 July, Friday

Time Temperature Precipitation Wind Pressure Humidity
00:00 +28°C° 0 mm 4 mps 751 mmHg 89%
01:00 +28°C° 0 mm 3 mps 751 mmHg 89%
02:00 +27°C° 0 mm 3 mps 750 mmHg 89%
03:00 +27°C° 0 mm 3 mps 750 mmHg 89%
04:00 +27°C° 0 mm 3 mps 750 mmHg 88%
05:00 +28°C° 0 mm 3 mps 751 mmHg 85%
06:00 +28°C° 0 mm 3 mps 751 mmHg 82%
07:00 +29°C° 0 mm 3 mps 751 mmHg 78%
08:00 +30°C° 0 mm 3 mps 751 mmHg 72%
09:00 +33°C° 0 mm 3 mps 752 mmHg 67%
10:00 +34°C° 0 mm 3 mps 752 mmHg 61%
11:00 +35°C° 0.1 mm 4 mps 751 mmHg 61%
12:00 +35°C° 0.1 mm 4 mps 750 mmHg 60%
13:00 +35°C° 0.1 mm 5 mps 750 mmHg 60%
14:00 +35°C° 0.2 mm 5 mps 750 mmHg 64%
15:00 +34°C° 0.2 mm 5 mps 749 mmHg 68%
16:00 +33°C° 0.2 mm 5 mps 749 mmHg 72%
17:00 +32°C° 0.4 mm 5 mps 749 mmHg 77%
18:00 +30°C° 0.4 mm 5 mps 750 mmHg 82%
19:00 +29°C° 0.4 mm 5 mps 750 mmHg 87%
20:00 +29°C° 0.1 mm 4 mps 751 mmHg 88%
21:00 +28°C° 0.1 mm 4 mps 751 mmHg 88%
22:00 +28°C° 0.1 mm 4 mps 752 mmHg 89%
23:00 +28°C° 0.1 mm 3 mps 752 mmHg 89%
Show more